Weather in Alekseyevskoye

Russia / Stavropol Krai     44°25′24″N   42°23′09″E
temp.,
°C
wind,
m/s
gust,
m/s
humid.,
%
clouds,
%
prec.,
mm/h
press.,
hPa
HPBL,
m
12 may, wed
wed1200:00+7e128345 0.0 101639
03:00+5ene1189100 0.0 101712
06:00+6ne00865 0.0 101845
09:00+11e23670 0.0 1017660
12:00+16e55571 0.0 10161190
15:00+17ese67565 0.0 10151255
18:00+15ese59685 0.0 1014620
21:00+12ese5137594 0.0 1014297
13 may, thu
thu1300:00+9se35890 0.0 101381
03:00+8se22885 0.0 101316
06:00+10sse11831 0.0 101442
09:00+17ese33650 0.0 1014442
12:00+21e44553 0.0 1013818
15:00+22ese565691 0.0 1013960
18:00+20e59705 0.0 1013377
21:00+15ese4108423 0.0 1014158
14 may, fri
fri1400:00+13se3488100 0.0 101363
03:00+13se33891 0.0 101337
06:00+14se35870 0.0 1013100
09:00+21ese34670 0.0 1013356
12:00+26ese44540 0.0 1012681
15:00+26e66550 0.0 1011894
18:00+23e597011 0.0 1011333
21:00+18ese34825 0.0 101253
15 may, sat
sat1500:00+16se23870 0.0 101124
03:00+16ssw11853 0.0 101211
06:00+16w2271100 0.0 101228
09:00+22wnw5773100 0.0 1013479
12:00+26nw34610 0.0 10131045
15:00+27n45530 0.0 10121516
18:00+25nne2369100 0.0 101298
21:00+20ne1182100 0.0 101211
16 may, sun
sun1600:00+18se1187100 0.1 101111
03:00+16se22895 0.1 101020
06:00+17ese238721 0.0 101091
09:00+21e456986 0.0 1008451
12:00+24e796493 0.0 1007942
15:00+25e79525 0.0 10051060
18:00+23ese61262100 0.0 1004407
21:00+20e71548100 0.0 1005387